Flag for Canada Weather past 2 weeks in Chatham-Kent, Ontario, Canada

Now
76 °F

Mild.


Feels Like: 75 °F
Forecast: 69 / 79 °F
Wind: 2 mph from Southwest

Location: Erieau

Current Time: Sep 2, 2015 at 9:30:26 AM

Latest Report: Sep 2, 2015 at 9:00 AM


Visibility: N/A

Pressure: 30.04 "Hg

Humidity: 90%

Dew point: 72 °F

Location of Chatham-KentLocation

Historic Weather in Chatham-Kent — Graph

°F

Chatham-Kent temperature yesterday

Maximum temperature yesterday: 79 °F (at 4:00 PM)
Minimum temperature yesterday: 70 °F (at 6:00 AM)
Average temperature yesterday: 75 °F

Past Weeks' High & Low Weather Summary

 TemperatureHumidityPressure
High79 °F (Aug 18, 3:00 PM)97% (Sep 1, 10:00 PM)30.21 "Hg (Sep 1, 10:00 PM)
Low58 °F (Aug 27, 6:00 AM)50% (Aug 21, 11:00 AM)29.68 "Hg (Aug 20, 4:00 AM)
Average70 °F77%30.01 "Hg
* Reported Aug 18 8:00 AM — Sep 2 8:00 AM, Chatham-Kent, Weather by CustomWeather, © 2015

Note: Actual official high and low records may vary slightly from our data, if they occured in-between our weather recording intervals... More about our weather records

Advertising

Chatham-Kent weather history for previous 24 hours

 ConditionsComfort  
Time TempWeatherWind HumidityBarometerVisibility
8:00 AM
Wed, Sep 2
74 °FMild.6 mph89%30.04 "HgN/A
7:00 AM74 °FMild.5 mph95%30.03 "HgN/A
6:00 AM74 °FMild.5 mph95%30.03 "HgN/A
5:00 AM74 °FMild.3 mph94%30.02 "HgN/A
4:00 AM75 °FMild.2 mph94%30.03 "HgN/A
3:00 AM75 °FMild.3 mph93%30.03 "HgN/A
2:00 AM76 °FMild.2 mph89%30.04 "HgN/A
1:00 AM76 °FMild.8 mph87%30.05 "HgN/A
12:00 AM76 °FMild.8 mph87%30.04 "HgN/A
11:00 PM
Tue, Sep 1
76 °FMild.3 mph92%30.04 "HgN/A
10:00 PM74 °FMild.2 mph97%30.04 "HgN/A
9:00 PM74 °FMild.2 mph89%30.04 "HgN/A
8:00 PM76 °FMild.No wind87%30.02 "HgN/A
7:00 PM78 °FWarm.No wind84%30.03 "HgN/A
6:00 PM78 °FWarm.5 mph82%30.02 "HgN/A
5:00 PM79 °FWarm.3 mph83%30.04 "HgN/A
4:00 PM79 °FWarm.6 mph82%30.04 "HgN/A
3:00 PM79 °FWarm.8 mph84%30.06 "HgN/A
2:00 PM78 °FWarm.6 mph84%30.07 "HgN/A
1:00 PM78 °FWarm.6 mph86%30.07 "HgN/A
12:00 PM77 °FWarm.5 mph87%30.08 "HgN/A
11:00 AM77 °FWarm.2 mph88%30.09 "HgN/A
10:00 AM75 °FMild.1 mph90%30.09 "HgN/A
9:00 AM74 °FMild.No wind90%30.09 "HgN/A
Weather by CustomWeather, © 2015

See weather overviewHow to use our weather pages